Other Public Products
Issued by NWS Charleston, SC

Current Version | Previous Version | Graphics & Text | Print | Product List | Glossary On
Versions: 1 2 3 4 5 6 7 8 9 10 11 12 13 14 15 16 17 18 19 20 21 22 23 24 25 26 27 28 29 30 31 32 33 34 35 36 37 38 39 40 41 42 43 44 45 46 47 48 49 50
000 FPUS82 KCHS 252227 OPUCHS TEST...KCHS/KSAV Gateway Observations...TEST National Weather Service Charleston SC 600 PM EDT TUE JUL 25 2017 NOTE: "fair" indicates few or no clouds below 12,000 feet with no significant weather and/or obstructions to visibility. SCZ050-WAZ558-NCZ071-TXZ119-213-PAZ071-DCZ001-FLZ074-172-MI076- NYZ176-178-MAZ016-IL014-TNZ027-NJZ106-GAZ044-MD014-252300- ...Gateway Observations for Charleston International... CITY SKY/WX TMP DP RH WIND PRES REMARKS Chas Airport CLOUDY 78 69 73 W9 30.04S Seattle SUNNY 82 52 35 W10 30.02F Charlotte PTSUNNY 93 64 38 VRB3 30.05F HX 94 Dallas DFW MOSUNNY 96 72 45 SE10G21 30.00F HX 104 Dallas Love MOSUNNY 95 67 39 SW8 30.01F HX 99 Philladelphia CLOUDY 76 60 57 S3 30.11S Wash National PTSUNNY 80 62 54 NW13 30.13R Baltimore PTSUNNY 78 62 57 NW9 30.12R Miami CLOUDY 88 76 67 SE5 30.08F HX 99 Detroit PTSUNNY 78 54 43 VRB6 30.21F Newark PTSUNNY 72 60 66 NE6 30.14R Laguardia CLOUDY 69 61 75 NE10 30.15R J F K PTSUNNY 69 63 81 SE7 30.15R Boston Logan PTSUNNY 64 56 75 E9 30.17R Ft. Lauderdale PTSUNNY 87 77 72 E10 30.07F HX 99 Chicago O`Hare CLOUDY 80 57 45 SE14 30.13F Chicago Midway PTSUNNY 81 58 45 E15 30.14F Houston Bush PTSUNNY 92 73 53 S14 30.05F HX 100 Houston Hobby PTSUNNY 93 75 55 S10 30.05F HX 104 Nashville CLOUDY 87 71 58 W8 30.08S HX 93 Atlanta PTSUNNY 81 69 67 SW5 30.08S $$ GAZ044-118-TXZ119-213-NCZ071-DCZ001-MDZ014-506-PAZ021-071-NJZ106- NYZ176-178-MAZ106-OHZ011-021-055-MIZ076-KYZ091-ILZ014-INZ047- MNZ060-ONZ431-252300- ...Gateway Observations for Savannah International... CITY SKY/WX TMP DP RH WIND PRES REMARKS Savannah Arpt TSTM 77 75 93 S8 30.07R Atlanta PTSUNNY 81 69 67 SW5 30.08S Charlotte PTSUNNY 93 64 38 VRB3 30.05F HX 94 Dallas DFW MOSUNNY 96 72 45 SE10G21 30.00F HX 104 Houston Bush PTSUNNY 92 73 53 S14 30.05F HX 100 Wash National PTSUNNY 80 62 54 NW13 30.13R Wash Dulles PTSUNNY 77 59 53 NW9 30.14S Baltimore PTSUNNY 78 62 57 NW9 30.12R Philadelphia CLOUDY 76 60 57 S3 30.11S Newark PTSUNNY 72 60 66 NE6 30.14R Laguardia CLOUDY 69 61 75 NE10 30.15R J F K PTSUNNY 69 63 81 SE7 30.15R Boston PTSUNNY 64 56 75 E9 30.17R Pittsburg MOSUNNY 75 57 53 NE6 30.19F Akron MOSUNNY 77 56 48 E3 30.21S Cleveland CLOUDY 74 60 61 NE10 30.22F Cincinnati SUNNY 80 61 52 E12 30.15F Columbus MOSUNNY 75 60 60 E7 30.18F Detroit PTSUNNY 78 54 43 VRB6 30.21F Chicago O`Hare CLOUDY 80 57 45 SE14 30.13F Minneapolis CLOUDY 82 71 69 S8 29.94F Indianapolis MOSUNNY 80 57 45 E7 30.15F Toronto Canada PTSUNNY 72 55 56 S9 30.22R $$

USA.gov is the U.S. government's official web portal to all federal, state and local government web resources and services.